Flag for Chile Weather past 2 weeks in Osorno, Chile

Now
54 °F

Rain. Mostly cloudy.


Feels Like: 53 °F
Forecast: 50 / 58 °F
Wind: 3 mph from North

Location: Puerto Montt Airport

Current Time: Apr 18, 2015 at 1:50:44 PM

Latest Report: Apr 18, 2015 at 1:00 PM


Visibility: 2 mi

Pressure: 29.59 "Hg

Humidity: 94%

Dew point: 52 °F

Location of OsornoLocation

Historic Weather in Osorno — Graph

°F

Osorno temperature yesterday

Maximum temperature yesterday: 59 °F (at 3:00 PM)
Minimum temperature yesterday: 43 °F (at 4:00 AM)
Average temperature yesterday: 51 °F

Past Weeks' High & Low Weather Summary

 TemperatureHumidityPressure
High73 °F (Apr 6, 4:00 PM)100% (Apr 4, 5:00 AM)30.21 "Hg (Apr 4, 5:00 AM)
Low39 °F (Apr 16, 9:00 AM)50% (Apr 6, 4:00 PM)29.47 "Hg (Apr 18, 10:00 AM)
Average54 °F89%30.00 "Hg
* Reported Apr 3 12:00 Noon — Apr 18 12:00 Noon, Osorno, Weather by CustomWeather, © 2015

Note: Actual official high and low records may vary slightly from our data, if they occured in-between our weather recording intervals... More about our weather records

Advertising

Osorno weather history for previous 24 hours

 ConditionsComfort  
Time TempWeatherWind HumidityBarometerVisibility
12:00 PM
Sat, Apr 18
52 °FLight rain. Mostly cloudy.No wind100%29.59 "Hg2 mi
11:00 AM52 °FRain. Mostly cloudy.13 mph100%29.56 "Hg1 mi
10:00 AM54 °FLight rain. Mostly cloudy.26 mph88%29.47 "Hg2 mi
9:00 AM54 °FRain. Mostly cloudy.28 mph88%29.50 "Hg2 mi
8:00 AM55 °FLight rain. Overcast.32 mph82%29.50 "Hg2 mi
7:00 AM54 °FLight rain. Overcast.32 mph82%29.56 "Hg2 mi
6:00 AM54 °FLight rain. Overcast.30 mph82%29.59 "Hg3 mi
5:00 AM54 °FLight rain. Mostly cloudy.30 mph82%29.65 "Hg3 mi
4:00 AM54 °FDrizzle. Mostly cloudy.25 mph82%29.71 "Hg3 mi
3:00 AM52 °FLight rain. Overcast.25 mph88%29.77 "Hg3 mi
2:00 AM54 °FLight rain. Overcast.25 mph82%29.80 "Hg1 mi
1:00 AM54 °FLight rain. Overcast.25 mph88%29.83 "Hg3 mi
12:00 AM52 °FLight rain. Overcast.22 mph88%29.89 "Hg3 mi
11:00 PM
Fri, Apr 17
52 °FLight rain. Overcast.18 mph88%29.92 "Hg3 mi
10:00 PM52 °FLight rain. Overcast.18 mph88%29.95 "Hg3 mi
9:00 PM54 °FRain. Overcast.17 mph82%29.98 "Hg3 mi
8:00 PM55 °FLight rain. Overcast.17 mph77%29.98 "HgN/A
7:00 PM55 °FLight rain. Overcast.15 mph77%30.01 "HgN/A
6:00 PM59 °FMostly cloudy.15 mph68%30.04 "HgN/A
5:00 PM57 °FMostly cloudy.15 mph72%30.07 "HgN/A
4:00 PM59 °FBroken clouds.15 mph72%30.09 "HgN/A
3:00 PM59 °FBroken clouds.17 mph68%30.12 "HgN/A
2:00 PM55 °FOvercast.15 mph72%30.15 "HgN/A
1:00 PM54 °FMostly cloudy.15 mph82%30.18 "HgN/A
Weather by CustomWeather, © 2015

See weather overviewHow to use our weather pages